| time (UTC) | temp C | wind direction | speed KPH | gust KPH | rain 1hr cm | rain 24hr cm | rain mn cm | humidity % | barometer mb |
| 20260505041700 | 1 | 310 | 0.0 | 0.0 | 0.00 | 0.03 | 0.00 | 69 | 1008.3 |
| 20260505040104 | 0 | 311 | 0.0 | 0.0 | 0.00 | 0.03 | 0.00 | 73 | 1008.1 |
| 20260505034659 | 0 | 310 | 0.0 | 1.6 | 0.00 | 0.03 | 0.00 | 72 | 1008.1 |
| 20260505033059 | 0 | 306 | 3.2 | 6.4 | 0.00 | 0.03 | 0.00 | 76 | 1007.9 |
| 20260505031659 | 0 | 331 | 0.0 | 3.2 | 0.00 | 0.03 | 0.00 | 74 | 1008.0 |
| 20260505024700 | 0 | 344 | 3.2 | 4.8 | 0.00 | 0.03 | 0.00 | 69 | 1007.6 |
| 20260505023059 | 1 | 351 | 0.0 | 8.0 | 0.00 | 0.03 | 0.00 | 67 | 1007.6 |
| 20260505021701 | 1 | 347 | 3.2 | 14.5 | 0.00 | 0.03 | 0.00 | 66 | 1007.5 |
| 20260505020103 | 1 | 5 | 4.8 | 19.3 | 0.00 | 0.03 | 0.00 | 65 | 1007.2 |
| 20260505014659 | 1 | 317 | 9.7 | 17.7 | 0.00 | 0.03 | 0.00 | 67 | 1007.2 |
| 20260505013059 | 1 | 328 | 4.8 | 12.9 | 0.00 | 0.03 | 0.00 | 68 | 1007.2 |
| 20260505011700 | 1 | 355 | 4.8 | 12.9 | 0.00 | 0.03 | 0.00 | 67 | 1007.1 |
| 20260505010059 | 2 | 351 | 3.2 | 9.7 | 0.00 | 0.03 | 0.00 | 67 | 1006.9 |
| 20260505004701 | 2 | 319 | 6.4 | 17.7 | 0.00 | 0.03 | 0.00 | 68 | 1006.9 |
| 20260505003100 | 2 | 328 | 6.4 | 11.3 | 0.00 | 0.03 | 0.00 | 68 | 1006.7 |
| 20260505001658 | 2 | 323 | 6.4 | 12.9 | 0.00 | 0.03 | 0.00 | 68 | 1006.5 |
| 20260505000100 | 2 | 293 | 4.8 | 17.7 | 0.00 | 0.03 | 0.00 | 66 | 1006.4 |
| 20260504234701 | 2 | 317 | 4.8 | 14.5 | 0.00 | 0.03 | 0.00 | 66 | 1006.4 |
| 20260504233102 | 2 | 306 | 6.4 | 14.5 | 0.00 | 0.03 | 0.00 | 66 | 1006.5 |
| 20260504231700 | 2 | 5 | 1.6 | 14.5 | 0.00 | 0.03 | 0.00 | 67 | 1006.4 |
| 20260504230059 | 2 | 327 | 3.2 | 14.5 | 0.00 | 0.03 | 0.00 | 69 | 1006.2 |
| 20260504224701 | 2 | 319 | 8.0 | 19.3 | 0.00 | 0.03 | 0.00 | 71 | 1006.0 |
| 20260504223102 | 2 | 302 | 11.3 | 19.3 | 0.00 | 0.03 | 0.00 | 74 | 1006.0 |
| 20260504220107 | 3 | 298 | 9.7 | 19.3 | 0.00 | 0.03 | 0.00 | 74 | 1005.8 |
| 20260504214700 | 2 | 292 | 6.4 | 11.3 | 0.00 | 0.03 | 0.03 | 80 | 1005.7 |
| 20260504213100 | 3 | 337 | 4.8 | 11.3 | 0.00 | 0.03 | 0.03 | 79 | 1005.5 |
| 20260504211659 | 3 | 275 | 6.4 | 19.3 | 0.00 | 0.03 | 0.03 | 77 | 1005.4 |
| 20260504210107 | 3 | 294 | 12.9 | 29.0 | 0.00 | 0.03 | 0.03 | 74 | 1005.2 |
| 20260504204659 | 3 | 296 | 11.3 | 16.1 | 0.00 | 0.03 | 0.03 | 75 | 1005.1 |
| 20260504203135 | 3 | 291 | 8.0 | 12.9 | 0.00 | 0.03 | 0.03 | 77 | 1004.9 |
| 20260504201700 | 3 | 285 | 3.2 | 8.0 | 0.00 | 0.03 | 0.03 | 81 | 1004.7 |
| 20260504200100 | 4 | 294 | 0.0 | 0.0 | 0.00 | 0.03 | 0.03 | 81 | 1004.6 |
| 20260504194700 | 4 | 294 | 0.0 | 8.0 | 0.00 | 0.03 | 0.03 | 80 | 1004.5 |
| 20260504193101 | 4 | 344 | 1.6 | 6.4 | 0.03 | 0.03 | 0.03 | 84 | 1004.2 |
| 20260504191701 | 4 | 327 | 0.0 | 6.4 | 0.03 | 0.03 | 0.03 | 84 | 1004.0 |
| 20260504190100 | 5 | 319 | 3.2 | 11.3 | 0.03 | 0.03 | 0.03 | 84 | 1004.0 |
| 20260504184700 | 5 | 315 | 12.9 | 25.7 | 0.03 | 0.03 | 0.03 | 82 | 1003.7 |
| 20260504183105 | 7 | 309 | 8.0 | 29.0 | 0.00 | 0.00 | 0.00 | 78 | 1003.4 |
| 20260504181700 | 10 | 259 | 19.3 | 38.6 | 0.00 | 0.00 | 0.00 | 53 | 1002.4 |
| 20260504180121 | 10 | 229 | 11.3 | 32.2 | 0.00 | 0.00 | 0.00 | 49 | 1001.6 |
| 20260504174702 | 11 | 270 | 9.7 | 24.1 | 0.00 | 0.00 | 0.00 | 48 | 1001.8 |
| 20260504173110 | 11 | 277 | 6.4 | 19.3 | 0.00 | 0.00 | 0.00 | 48 | 1001.8 |
| 20260504171659 | 11 | 257 | 8.0 | 25.7 | 0.00 | 0.00 | 0.00 | 47 | 1001.8 |
| 20260504160110 | 12 | 263 | 9.7 | 25.7 | 0.00 | 0.00 | 0.00 | 39 | 1002.3 |
| 20260504150104 | 13 | 279 | 12.9 | 38.6 | 0.00 | 0.00 | 0.00 | 36 | 1002.6 |
| 20260504081501 | 10 | 327 | 6.4 | 17.7 | 0.00 | 0.00 | 0.00 | 49 | 1003.9 |
| 20260504080103 | 10 | 331 | 11.3 | 27.4 | 0.00 | 0.00 | 0.00 | 49 | 1003.9 |
| 20260504060105 | 7 | 270 | 0.0 | 4.8 | 0.00 | 0.00 | 0.00 | 84 | 1003.6 |